Location: Poinsettia Observatory
(32.9673°N, 117.0346°W)
Time: 06:07:07
(UTC-08:00)

Daily predictions for brighter satellites

Satellite Brightness Start Highest point End
(mag) Time Altitude Azimuth Time Altitude Azimuth Time Altitude Azimuth
Tsikada Rocket 4.0 17:01:30 10° N 17:07:39 72° E 17:13:49 10° SSE
IRAS Rocket 4.3 17:03:16 10° SSE 17:08:50 90° NE 17:14:23 10° NNW
EO 1 Del DPAF 4.4 17:08:45 10° NE 17:11:51 23° E 17:14:57 10° SSE
Landsat 4 4.2 17:08:39 10° NNE 17:12:16 41° E 17:15:52 10° S
OE (NEXTSAT) 4.4 17:09:53 10° NW 17:13:25 84° SSW 17:16:56 10° SE
ERBS 3.3 17:13:08 10° NNW 17:16:08 28° NE 17:19:07 10° ESE
Cosmos 1703 Rocket 4.1 17:12:46 10° SSE 17:16:53 37° E 17:21:00 10° NNE
Cosmos 1782 3.7 17:14:43 10° SSE 17:18:14 29° E 17:21:45 10° NNE
Cosmos 2346 Rocket 4.5 17:12:24 10° N 17:18:30 62° E 17:24:36 10° SSE
CENTAUR R/B 4.2 17:20:08 10° WSW 17:25:14 28° NW 17:30:54 10° N
CSL-04 Rocket 3.9 17:21:43 10° S 17:26:59 75° WSW 17:32:18 10° NNW
Meteor 1-25 Rocket 4.4 17:24:05 10° N 17:29:47 53° E 17:35:24 10° SSE
GENESIS II 4.2 17:27:03 10° NNW 17:30:54 60° ENE 17:34:44 10° SE
Cosmos 2082 Rocket 3.3 17:26:42 10° N 17:30:58 21° ENE 17:35:12 10° ESE
Meteor 1-20 Rocket 4.3 17:26:19 10° N 17:31:41 48° E 17:36:56 10° SSE
ALOS 3.3 17:28:11 10° ESE 17:31:50 23° ENE 17:35:29 10° NNE
Cosmos 468 Rocket 4.3 17:26:46 10° NNW 17:31:55 70° WSW 17:36:59 10° S
Cosmos 405 Rocket 4.0 17:29:37 10° SE 17:32:25 20° E 17:34:12 15° ENE
Okean 2 Rocket 4.5 17:29:21 10° NNE 17:32:28 18° ENE 17:35:35 10° ESE
METEOR-M 4.3 17:31:49 10° SE 17:36:55 48° ENE 17:42:02 10° N
ERS-2 2.5 17:34:25 10° SE 17:37:53 42° ENE 17:41:23 10° N
Cosmos 1464 Rocket 4.2 17:34:11 10° SSE 17:39:59 47° E 17:45:49 10° NNE
SMAP 3.6 17:36:13 10° S 17:40:49 64° WSW 17:45:27 10° NNW
Cosmos 1908 Rocket 3.4 17:42:27 10° N 17:46:49 79° E 17:51:07 10° S
SKYMED 2 3.5 17:42:56 10° NNE 17:47:16 75° ESE 17:51:36 10° S
Meteor 1-27 Rocket 4.5 17:42:12 10° SSE 17:47:20 32° E 17:52:32 10° NNE
Cosmos 1763 Rocket 3.5 17:46:39 10° NNW 17:51:51 82° WSW 17:56:57 10° SSE
Meteor 1-10 Rocket 4.2 17:49:45 10° S 17:55:19 68° E 18:01:01 10° NNE
SL-27 R/B 2.3 17:54:29 10° N 17:57:45 53° ENE 18:01:03 10° SSE
Sich 1 Rocket 3.5 17:55:01 10° N 17:59:26 90° NNE 18:03:55 10° S
Cosmos 1503 Rocket 4.1 18:02:05 10° SSW 18:07:22 78° WNW 18:12:38 10° NNE
Okean 1-7 3.4 18:09:18 10° SSW 18:13:36 64° W 18:17:58 10° N
FENGYUN 3A 3.6 18:09:26 10° SSE 18:14:47 67° ENE 18:20:10 10° N
Cosmos 1633 2.8 18:11:52 10° NNW 18:15:30 69° W 18:19:08 10° S
Cosmos 968 Rocket 3.7 18:11:08 10° S 18:16:00 45° ESE 18:17:16 38° ENE
CZ-4 R/B 3.6 18:13:49 10° SSW 18:17:06 26° W 18:20:21 10° NW
CZ-4C R/B 3.8 18:14:53 10° N 18:20:54 27° NE 18:20:54 27° NE
Cosmos 540 Rocket 3.3 18:15:53 10° N 18:21:02 67° ENE 18:26:08 10° SSE
GPS 2-05 Rocket1 2.8 18:19:12 10° WSW 18:22:06 67° SSW 18:22:06 67° SSW
Cosmos 2369 Rocket 4.2 18:20:22 10° SE 18:21:00 12° SE 18:21:00 12° SE
Cosmos 2297 4.2 18:19:30 10° SSW 18:25:07 59° WNW 18:30:32 11° NNE
Cosmos 836 Rocket 4.4 18:20:31 10° NNW 18:25:47 72° ENE 18:31:02 10° SSE
Cosmos 841 Rocket 4.4 18:21:26 10° NNW 18:26:32 50° WSW 18:31:34 10° S
Cosmos 1833 Rocket 2.5 18:23:31 10° NNW 18:29:08 70° ENE 18:34:44 10° SSE
Meteor 1-11 Rocket 3.8 18:24:36 10° N 18:30:20 56° E 18:35:54 10° SSE
Cosmos 1782 Rocket 4.2 18:26:56 10° NNW 18:31:11 54° W 18:35:24 10° S
Cosmos 2278 Rocket 4.5 18:27:03 10° WSW 18:31:12 21° WNW 18:35:22 10° NNW
USA 234 4.0 18:27:13 18° NNE 18:31:57 48° NW 18:38:08 10° WSW
Cosmos 1441 Rocket 3.5 18:32:10 10° SSW 18:36:07 68° W 18:36:51 53° NNW
BREEZE-M R/B 3.4 18:38:09 10° NW 18:40:39 50° NNW 18:40:39 50° NNW
OAO 3 Rocket 3.2 18:37:42 10° WSW 18:42:37 70° SSE 18:42:40 70° SSE
OAO 3 Copernicus 4.1 18:37:36 10° WNW 18:42:43 87° NNE 18:42:57 81° E
SPOT 3 Rocket 4.3 18:37:59 10° S 18:43:04 52° W 18:48:09 10° NNW
Nadezhda 4 Rocket 3.8 18:53:12 10° N 18:59:20 89° W 19:05:26 10° S
ALOS 4.2 19:05:06 10° SSW 19:09:04 28° W 19:13:04 10° NW
MOS 1-B Rocket 4.4 19:02:29 10° SSE 19:09:22 85° ENE 19:17:33 10° NNW
Cosmos 2082 Rocket 3.2 19:09:52 10° NW 19:15:13 44° WSW 19:20:32 10° S
USA 229 DEB 3.6 19:11:17 10° SSW 19:17:34 79° SW 19:17:34 79° SW
USA 229 3.6 19:11:23 10° SSW 19:17:37 78° SW 19:17:37 78° SW
CZ-3C R/B 4.4 18:49:56 10° W 19:46:03 41° SSW 19:48:20 37° S
CZ-4C R/B 4.2 20:02:33 10° NW 20:06:09 32° NW 20:06:09 32° NW
